Time,TemperatureF,DewpointF,PressureIn,WindDirection,WindDirectionDegrees,WindSpeedMPH,WindSpeedGustMPH,Humidity,HourlyPrecipIn,Conditions,Clouds,dailyrainin,SoftwareType,DateUTC
2013-02-06 00:01:00,55.4,51.6,30.07,East,82,0.0,0.0,87,0.00,,,0.00,Wunderground v.1.13,2013-02-06 08:01:00,
2013-02-06 00:06:00,55.4,51.6,30.07,East,82,0.0,0.0,87,0.00,,,0.00,Wunderground v.1.13,2013-02-06 08:06:00,
2013-02-06 00:11:00,55.4,51.9,30.07,East,82,0.0,0.0,88,0.00,,,0.00,Wunderground v.1.13,2013-02-06 08:11:00,
2013-02-06 00:16:00,55.4,51.9,30.07,East,82,0.0,0.0,88,0.00,,,0.00,Wunderground v.1.13,2013-02-06 08:16:00,
2013-02-06 00:21:00,55.4,51.9,30.07,East,82,0.0,0.0,88,0.00,,,0.00,Wunderground v.1.13,2013-02-06 08:21:00,
2013-02-06 00:26:00,55.4,51.9,30.07,East,82,0.0,0.0,88,0.00,,,0.00,Wunderground v.1.13,2013-02-06 08:26:00,
2013-02-06 00:31:00,55.4,51.9,30.07,East,82,0.0,0.0,88,0.00,,,0.00,Wunderground v.1.13,2013-02-06 08:31:00,
2013-02-06 00:36:00,55.4,51.9,30.08,East,82,0.0,0.0,88,0.00,,,0.00,Wunderground v.1.13,2013-02-06 08:36:00,
2013-02-06 00:46:00,55.3,51.5,30.07,East,82,0.0,0.0,87,0.00,,,0.00,Wunderground v.1.13,2013-02-06 08:46:00,
2013-02-06 00:51:00,55.3,51.5,30.08,East,82,0.0,0.0,87,0.00,,,0.00,Wunderground v.1.13,2013-02-06 08:51:00,
2013-02-06 00:56:00,55.3,51.5,30.08,East,82,0.0,0.0,87,0.00,,,0.00,Wunderground v.1.13,2013-02-06 08:56:00,
2013-02-06 01:01:00,55.3,51.8,30.08,East,82,0.0,0.0,88,0.00,,,0.00,Wunderground v.1.13,2013-02-06 09:01:00,
2013-02-06 01:06:00,55.3,51.8,30.08,East,82,0.0,0.0,88,0.00,,,0.00,Wunderground v.1.13,2013-02-06 09:06:00,
2013-02-06 01:11:00,55.3,51.8,30.08,East,82,0.0,0.0,88,0.00,,,0.00,Wunderground v.1.13,2013-02-06 09:11:00,
2013-02-06 01:16:00,55.3,51.5,30.08,East,82,0.0,0.0,87,0.00,,,0.00,Wunderground v.1.13,2013-02-06 09:16:00,
2013-02-06 01:21:00,55.3,51.8,30.08,East,82,0.0,0.0,88,0.00,,,0.00,Wunderground v.1.13,2013-02-06 09:21:00,
2013-02-06 01:26:00,55.3,51.5,30.08,East,82,0.0,0.0,87,0.00,,,0.00,Wunderground v.1.13,2013-02-06 09:26:00,
2013-02-06 01:36:00,55.3,51.5,30.08,East,82,0.0,0.0,87,0.00,,,0.00,Wunderground v.1.13,2013-02-06 09:36:00,
2013-02-06 01:41:00,55.3,51.5,30.08,East,82,0.0,0.0,87,0.00,,,0.00,Wunderground v.1.13,2013-02-06 09:41:00,
2013-02-06 01:51:00,55.2,51.4,30.08,East,82,0.0,0.0,87,0.00,,,0.00,Wunderground v.1.13,2013-02-06 09:51:00,
2013-02-06 01:56:00,55.2,51.4,30.08,East,82,0.0,0.0,87,0.00,,,0.00,Wunderground v.1.13,2013-02-06 09:56:00,
2013-02-06 02:01:00,55.2,51.7,30.08,East,82,0.0,0.0,88,0.00,,,0.00,Wunderground v.1.13,2013-02-06 10:01:00,
2013-02-06 02:06:00,55.2,51.7,30.08,East,82,0.0,0.0,88,0.00,,,0.00,Wunderground v.1.13,2013-02-06 10:06:00,
2013-02-06 02:11:00,55.1,51.6,30.08,East,82,0.0,0.0,88,0.00,,,0.00,Wunderground v.1.13,2013-02-06 10:11:00,
2013-02-06 02:16:00,55.1,51.6,30.07,East,82,0.0,0.0,88,0.00,,,0.00,Wunderground v.1.13,2013-02-06 10:16:00,
2013-02-06 02:21:00,55.0,51.5,30.07,East,82,0.0,0.0,88,0.00,,,0.00,Wunderground v.1.13,2013-02-06 10:21:00,
2013-02-06 02:26:00,55.0,51.5,30.07,East,82,0.0,0.0,88,0.00,,,0.00,Wunderground v.1.13,2013-02-06 10:26:00,
2013-02-06 02:31:00,54.9,51.4,30.07,East,82,0.0,0.0,88,0.00,,,0.00,Wunderground v.1.13,2013-02-06 10:31:00,
2013-02-06 02:41:00,54.7,51.2,30.07,East,82,0.0,0.0,88,0.00,,,0.00,Wunderground v.1.13,2013-02-06 10:41:00,
2013-02-06 02:46:00,54.7,51.2,30.07,East,82,0.0,0.0,88,0.00,,,0.00,Wunderground v.1.13,2013-02-06 10:46:00,
2013-02-06 02:51:00,54.6,51.1,30.07,East,82,0.0,0.0,88,0.00,,,0.00,Wunderground v.1.13,2013-02-06 10:51:00,
2013-02-06 02:56:00,54.5,51.0,30.06,East,82,0.0,0.0,88,0.00,,,0.00,Wunderground v.1.13,2013-02-06 10:56:00,
2013-02-06 03:01:00,54.3,50.8,30.06,East,82,0.0,0.0,88,0.00,,,0.00,Wunderground v.1.13,2013-02-06 11:01:00,
2013-02-06 03:11:00,54.0,50.8,30.06,East,82,0.0,0.0,89,0.00,,,0.00,Wunderground v.1.13,2013-02-06 11:11:00,
2013-02-06 03:16:00,53.8,50.6,30.06,East,82,0.0,0.0,89,0.00,,,0.00,Wunderground v.1.13,2013-02-06 11:16:00,
2013-02-06 03:21:00,53.7,51.4,30.06,East,82,0.0,0.0,92,0.00,,,0.00,Wunderground v.1.13,2013-02-06 11:21:00,
2013-02-06 03:26:00,53.6,50.4,30.06,East,82,0.0,0.0,89,0.00,,,0.00,Wunderground v.1.13,2013-02-06 11:26:00,
2013-02-06 03:31:00,53.5,50.3,30.06,East,82,0.0,0.0,89,0.00,,,0.00,Wunderground v.1.13,2013-02-06 11:31:00,
2013-02-06 03:41:00,53.5,50.6,30.06,East,82,0.0,0.0,90,0.00,,,0.00,Wunderground v.1.13,2013-02-06 11:41:00,
2013-02-06 03:46:00,53.5,50.6,30.06,East,82,0.0,0.0,90,0.00,,,0.00,Wunderground v.1.13,2013-02-06 11:46:00,
2013-02-06 03:51:00,53.5,50.6,30.06,East,82,0.0,0.0,90,0.00,,,0.00,Wunderground v.1.13,2013-02-06 11:51:00,
2013-02-06 03:56:00,53.5,50.6,30.06,East,82,0.0,0.0,90,0.00,,,0.00,Wunderground v.1.13,2013-02-06 11:56:00,
2013-02-06 04:01:00,53.3,50.4,30.06,East,82,0.0,0.0,90,0.00,,,0.00,Wunderground v.1.13,2013-02-06 12:01:00,
2013-02-06 04:11:00,53.0,50.1,30.06,East,82,0.0,0.0,90,0.00,,,0.00,Wunderground v.1.13,2013-02-06 12:11:00,
2013-02-06 04:16:00,52.9,50.0,30.07,East,82,0.0,0.0,90,0.00,,,0.00,Wunderground v.1.13,2013-02-06 12:16:00,
2013-02-06 04:21:00,52.9,50.0,30.06,East,82,0.0,0.0,90,0.00,,,0.00,Wunderground v.1.13,2013-02-06 12:21:00,
2013-02-06 04:26:00,52.9,50.0,30.06,East,86,0.0,0.0,90,0.00,,,0.00,Wunderground v.1.13,2013-02-06 12:26:00,
2013-02-06 04:31:00,52.9,50.3,30.06,East,89,0.0,0.0,91,0.00,,,0.00,Wunderground v.1.13,2013-02-06 12:31:00,
2013-02-06 04:36:00,52.8,49.9,30.06,East,89,0.0,0.0,90,0.00,,,0.00,Wunderground v.1.13,2013-02-06 12:36:00,
2013-02-06 04:41:00,52.6,49.8,30.07,East,88,0.0,0.0,90,0.00,,,0.00,Wunderground v.1.13,2013-02-06 12:41:00,
2013-02-06 04:46:00,52.4,49.6,30.06,East,89,0.0,0.0,90,0.00,,,0.00,Wunderground v.1.13,2013-02-06 12:46:00,
2013-02-06 04:51:00,52.2,49.7,30.07,East,90,0.0,0.0,91,0.00,,,0.00,Wunderground v.1.13,2013-02-06 12:51:00,
2013-02-06 04:56:00,52.2,49.7,30.07,ESE,106,0.0,4.0,91,0.00,,,0.00,Wunderground v.1.13,2013-02-06 12:56:00,
2013-02-06 05:06:00,52.1,49.6,30.07,ESE,114,1.0,1.0,91,0.00,,,0.00,Wunderground v.1.13,2013-02-06 13:06:00,
2013-02-06 05:11:00,52.0,49.5,30.06,ESE,116,0.0,0.0,91,0.00,,,0.00,Wunderground v.1.13,2013-02-06 13:11:00,
2013-02-06 05:21:00,51.7,49.2,30.07,ESE,117,0.0,0.0,91,0.00,,,0.00,Wunderground v.1.13,2013-02-06 13:21:00,
2013-02-06 05:31:00,51.1,48.6,30.07,ESE,117,0.0,0.0,91,0.00,,,0.00,Wunderground v.1.13,2013-02-06 13:31:00,
2013-02-06 05:36:00,50.8,48.3,30.07,ESE,118,0.0,0.0,91,0.00,,,0.00,Wunderground v.1.13,2013-02-06 13:36:00,
2013-02-06 05:41:00,50.6,48.1,30.07,ESE,119,0.0,0.0,91,0.00,,,0.00,Wunderground v.1.13,2013-02-06 13:41:00,
2013-02-06 05:46:00,50.4,47.9,30.07,ESE,123,0.0,1.0,91,0.00,,,0.00,Wunderground v.1.13,2013-02-06 13:46:00,
2013-02-06 05:51:00,50.4,47.9,30.07,SE,134,1.0,1.0,91,0.00,,,0.00,Wunderground v.1.13,2013-02-06 13:51:00,
2013-02-06 05:56:00,50.4,47.9,30.07,SE,139,1.0,1.0,91,0.00,,,0.00,Wunderground v.1.13,2013-02-06 13:56:00,
2013-02-06 06:01:00,49.9,47.4,30.07,SE,138,0.0,0.0,91,0.00,,,0.00,Wunderground v.1.13,2013-02-06 14:01:00,
2013-02-06 06:11:00,49.3,47.1,30.08,SE,141,0.0,0.0,92,0.00,,,0.00,Wunderground v.1.13,2013-02-06 14:11:00,
2013-02-06 06:16:00,49.3,47.1,30.08,SSE,156,1.0,1.0,92,0.00,,,0.00,Wunderground v.1.13,2013-02-06 14:16:00,
2013-02-06 06:21:00,49.4,47.2,30.08,South,171,1.0,3.0,92,0.00,,,0.00,Wunderground v.1.13,2013-02-06 14:21:00,
2013-02-06 06:26:00,49.6,47.4,30.08,South,183,2.0,5.0,92,0.00,,,0.00,Wunderground v.1.13,2013-02-06 14:26:00,
2013-02-06 06:31:00,49.9,47.7,30.08,South,183,2.0,2.0,92,0.00,,,0.00,Wunderground v.1.13,2013-02-06 14:31:00,
2013-02-06 06:41:00,49.8,47.6,30.08,South,182,3.0,3.0,92,0.00,,,0.00,Wunderground v.1.13,2013-02-06 14:41:00,
2013-02-06 06:51:00,49.5,47.3,30.09,South,184,3.0,3.0,92,0.00,,,0.00,Wunderground v.1.13,2013-02-06 14:51:00,
2013-02-06 06:56:00,49.3,47.1,30.09,South,186,2.0,2.0,92,0.00,,,0.00,Wunderground v.1.13,2013-02-06 14:56:00,
2013-02-06 07:01:00,49.2,47.3,30.09,South,187,3.0,3.0,93,0.00,,,0.00,Wunderground v.1.13,2013-02-06 15:01:00,
2013-02-06 07:11:00,49.0,47.1,30.09,South,186,1.0,1.0,93,0.00,,,0.00,Wunderground v.1.13,2013-02-06 15:11:00,
2013-02-06 07:16:00,49.0,47.1,30.09,South,186,1.0,1.0,93,0.00,,,0.00,Wunderground v.1.13,2013-02-06 15:16:00,
2013-02-06 07:21:00,49.0,47.1,30.09,South,186,1.0,1.0,93,0.00,,,0.00,Wunderground v.1.13,2013-02-06 15:21:00,
2013-02-06 07:26:00,48.9,47.0,30.09,South,188,1.0,5.0,93,0.00,,,0.00,Wunderground v.1.13,2013-02-06 15:26:00,
2013-02-06 07:31:00,48.8,46.9,30.09,South,188,3.0,4.0,93,0.00,,,0.00,Wunderground v.1.13,2013-02-06 15:31:00,
2013-02-06 07:36:00,48.7,46.8,30.10,South,187,3.0,3.0,93,0.00,,,0.00,Wunderground v.1.13,2013-02-06 15:36:00,
2013-02-06 07:41:00,48.5,46.6,30.10,South,186,2.0,3.0,93,0.00,,,0.00,Wunderground v.1.13,2013-02-06 15:41:00,
2013-02-06 07:46:00,48.4,46.5,30.10,South,186,2.0,2.0,93,0.00,,,0.00,Wunderground v.1.13,2013-02-06 15:46:00,
2013-02-06 07:56:00,48.5,46.6,30.11,South,188,2.0,2.0,93,0.00,,,0.00,Wunderground v.1.13,2013-02-06 15:56:00,
2013-02-06 08:01:00,48.5,46.6,30.11,South,187,2.0,2.0,93,0.00,,,0.00,Wunderground v.1.13,2013-02-06 16:01:00,
2013-02-06 08:06:00,48.6,46.7,30.11,South,186,1.0,1.0,93,0.00,,,0.00,Wunderground v.1.13,2013-02-06 16:06:00,
2013-02-06 08:11:00,48.8,46.9,30.11,South,186,2.0,5.0,93,0.00,,,0.00,Wunderground v.1.13,2013-02-06 16:11:00,
2013-02-06 08:21:00,49.2,47.3,30.11,South,188,1.0,4.0,93,0.00,,,0.00,Wunderground v.1.13,2013-02-06 16:21:00,
2013-02-06 08:26:00,49.3,47.4,30.12,South,188,1.0,1.0,93,0.00,,,0.00,Wunderground v.1.13,2013-02-06 16:26:00,
2013-02-06 08:31:00,49.7,47.8,30.12,South,188,1.0,2.0,93,0.00,,,0.00,Wunderground v.1.13,2013-02-06 16:31:00,
2013-02-06 08:36:00,50.1,48.2,30.12,South,188,1.0,1.0,93,0.00,,,0.00,Wunderground v.1.13,2013-02-06 16:36:00,
2013-02-06 08:41:00,50.6,48.7,30.12,South,184,2.0,4.0,93,0.00,,,0.00,Wunderground v.1.13,2013-02-06 16:41:00,
2013-02-06 08:46:00,50.8,48.8,30.12,South,186,2.0,4.0,93,0.00,,,0.00,Wunderground v.1.13,2013-02-06 16:46:00,
2013-02-06 08:51:00,51.2,49.0,30.12,South,186,2.0,4.0,92,0.00,,,0.00,Wunderground v.1.13,2013-02-06 16:51:00,
2013-02-06 09:01:00,52.1,49.6,30.12,South,187,2.0,2.0,91,0.00,,,0.00,Wunderground v.1.13,2013-02-06 17:01:00,
2013-02-06 09:06:00,52.9,50.3,30.12,South,187,1.0,1.0,91,0.00,,,0.00,Wunderground v.1.13,2013-02-06 17:06:00,
2013-02-06 09:16:00,54.4,50.9,30.13,South,187,0.0,0.0,88,0.00,,,0.00,Wunderground v.1.13,2013-02-06 17:16:00,
2013-02-06 09:21:00,55.4,51.6,30.13,South,187,0.0,0.0,87,0.00,,,0.00,Wunderground v.1.13,2013-02-06 17:21:00,
2013-02-06 09:26:00,55.9,51.5,30.13,South,187,0.0,0.0,85,0.00,,,0.00,Wunderground v.1.13,2013-02-06 17:26:00,
2013-02-06 09:36:00,57.2,52.1,30.13,South,187,0.0,0.0,83,0.00,,,0.00,Wunderground v.1.13,2013-02-06 17:36:00,
2013-02-06 09:41:00,57.6,51.5,30.13,South,187,0.0,0.0,80,0.00,,,0.00,Wunderground v.1.13,2013-02-06 17:41:00,
2013-02-06 09:46:00,58.0,51.5,30.13,South,187,0.0,0.0,79,0.00,,,0.00,Wunderground v.1.13,2013-02-06 17:46:00,
2013-02-06 09:51:00,58.0,51.5,30.13,South,187,0.0,0.0,79,0.00,,,0.00,Wunderground v.1.13,2013-02-06 17:51:00,
2013-02-06 09:56:00,58.4,52.3,30.13,South,181,0.0,0.0,80,0.00,,,0.00,Wunderground v.1.13,2013-02-06 17:56:00,
2013-02-06 10:06:00,57.9,52.1,30.14,NE,42,1.0,1.0,81,0.00,,,0.00,Wunderground v.1.13,2013-02-06 18:06:00,
2013-02-06 10:11:00,58.5,52.4,30.14,East,83,2.0,6.0,80,0.00,,,0.00,Wunderground v.1.13,2013-02-06 18:11:00,
2013-02-06 10:16:00,57.7,51.2,30.14,East,84,3.0,6.0,79,0.00,,,0.00,Wunderground v.1.13,2013-02-06 18:16:00,
2013-02-06 10:21:00,57.7,51.2,30.14,East,88,4.0,5.0,79,0.00,,,0.00,Wunderground v.1.13,2013-02-06 18:21:00,
2013-02-06 10:26:00,58.1,51.3,30.14,East,88,3.0,3.0,78,0.00,,,0.00,Wunderground v.1.13,2013-02-06 18:26:00,
2013-02-06 10:31:00,57.9,50.4,30.13,East,88,1.0,1.0,76,0.00,,,0.00,Wunderground v.1.13,2013-02-06 18:31:00,
2013-02-06 10:41:00,58.1,50.2,30.13,ENE,68,1.0,1.0,75,0.00,,,0.00,Wunderground v.1.13,2013-02-06 18:41:00,
2013-02-06 10:46:00,58.3,50.8,30.13,ENE,67,1.0,1.0,76,0.00,,,0.00,Wunderground v.1.13,2013-02-06 18:46:00,
2013-02-06 10:51:00,59.0,51.1,30.13,ENE,63,1.0,7.0,75,0.00,,,0.00,Wunderground v.1.13,2013-02-06 18:51:00,
2013-02-06 11:01:00,58.4,50.9,30.13,ENE,60,2.0,6.0,76,0.00,,,0.00,Wunderground v.1.13,2013-02-06 19:01:00,
2013-02-06 11:11:00,59.6,50.9,30.12,ENE,59,1.0,1.0,73,0.00,,,0.00,Wunderground v.1.13,2013-02-06 19:11:00,
2013-02-06 11:16:00,59.8,51.1,30.12,ENE,58,0.0,0.0,73,0.00,,,0.00,Wunderground v.1.13,2013-02-06 19:16:00,
2013-02-06 11:21:00,58.5,50.2,30.12,NE,56,1.0,4.0,74,0.00,,,0.00,Wunderground v.1.13,2013-02-06 19:21:00,
2013-02-06 11:26:00,59.7,51.4,30.12,NE,55,2.0,2.0,74,0.00,,,0.00,Wunderground v.1.13,2013-02-06 19:26:00,
2013-02-06 11:31:00,59.9,50.5,30.12,NE,55,1.0,1.0,71,0.00,,,0.00,Wunderground v.1.13,2013-02-06 19:31:00,
2013-02-06 11:36:00,59.3,50.6,30.12,NE,54,1.0,1.0,73,0.00,,,0.00,Wunderground v.1.13,2013-02-06 19:36:00,
2013-02-06 11:41:00,59.0,50.4,30.11,NE,48,3.0,5.0,73,0.00,,,0.00,Wunderground v.1.13,2013-02-06 19:41:00,
2013-02-06 11:46:00,59.1,50.5,30.11,NE,47,3.0,3.0,73,0.00,,,0.00,Wunderground v.1.13,2013-02-06 19:46:00,
2013-02-06 11:56:00,60.7,51.2,30.11,NE,46,0.0,0.0,71,0.00,,,0.00,Wunderground v.1.13,2013-02-06 19:56:00,
2013-02-06 12:01:00,60.7,50.9,30.11,NE,45,0.0,0.0,70,0.00,,,0.00,Wunderground v.1.13,2013-02-06 20:01:00,
2013-02-06 12:06:00,59.7,50.7,30.11,NE,41,1.0,2.0,72,0.00,,,0.00,Wunderground v.1.13,2013-02-06 20:06:00,
2013-02-06 12:11:00,60.0,50.9,30.11,ENE,63,2.0,2.0,72,0.00,,,0.00,Wunderground v.1.13,2013-02-06 20:11:00,
2013-02-06 12:21:00,59.2,50.5,30.10,ENE,63,3.0,3.0,73,0.00,,,0.00,Wunderground v.1.13,2013-02-06 20:21:00,
2013-02-06 12:31:00,59.6,50.6,30.09,ENE,75,2.0,2.0,72,0.00,,,0.00,Wunderground v.1.13,2013-02-06 20:31:00,
2013-02-06 12:36:00,60.3,51.6,30.09,ENE,75,1.0,1.0,73,0.00,,,0.00,Wunderground v.1.13,2013-02-06 20:36:00,
2013-02-06 12:41:00,60.7,51.2,30.09,ENE,74,0.0,0.0,71,0.00,,,0.00,Wunderground v.1.13,2013-02-06 20:41:00,
2013-02-06 12:51:00,61.1,51.2,30.09,ENE,63,0.0,0.0,70,0.00,,,0.00,Wunderground v.1.13,2013-02-06 20:51:00,
2013-02-06 12:56:00,60.5,50.7,30.09,ENE,60,0.0,0.0,70,0.00,,,0.00,Wunderground v.1.13,2013-02-06 20:56:00,
2013-02-06 13:01:00,60.6,51.1,30.09,NE,56,0.0,0.0,71,0.00,,,0.00,Wunderground v.1.13,2013-02-06 21:01:00,
2013-02-06 13:06:00,60.0,50.6,30.08,NE,46,1.0,1.0,71,0.00,,,0.00,Wunderground v.1.13,2013-02-06 21:06:00,
2013-02-06 13:11:00,59.7,50.7,30.08,NE,55,2.0,5.0,72,0.00,,,0.00,Wunderground v.1.13,2013-02-06 21:11:00,
2013-02-06 13:21:00,61.1,52.0,30.08,ENE,68,1.0,1.0,72,0.00,,,0.00,Wunderground v.1.13,2013-02-06 21:21:00,
2013-02-06 13:26:00,61.0,51.5,30.08,ENE,67,1.0,1.0,71,0.00,,,0.00,Wunderground v.1.13,2013-02-06 21:26:00,
2013-02-06 13:31:00,60.1,51.8,30.08,ENE,71,2.0,2.0,74,0.00,,,0.00,Wunderground v.1.13,2013-02-06 21:31:00,
2013-02-06 13:41:00,59.9,51.2,30.08,ENE,59,2.0,3.0,73,0.00,,,0.00,Wunderground v.1.13,2013-02-06 21:41:00,
2013-02-06 13:46:00,59.8,51.5,30.08,East,80,2.0,4.0,74,0.00,,,0.00,Wunderground v.1.13,2013-02-06 21:46:00,
2013-02-06 13:51:00,59.4,51.5,30.08,ENE,67,2.0,2.0,75,0.00,,,0.00,Wunderground v.1.13,2013-02-06 21:51:00,
2013-02-06 13:56:00,60.1,52.1,30.08,ENE,74,2.0,2.0,75,0.00,,,0.00,Wunderground v.1.13,2013-02-06 21:56:00,
2013-02-06 14:01:00,59.4,51.5,30.08,ENE,63,2.0,2.0,75,0.00,,,0.00,Wunderground v.1.13,2013-02-06 22:01:00,
2013-02-06 14:11:00,60.1,52.1,30.08,ENE,65,0.0,3.0,75,0.00,,,0.00,Wunderground v.1.13,2013-02-06 22:11:00,
2013-02-06 14:16:00,60.1,51.8,30.08,NE,52,1.0,2.0,74,0.00,,,0.00,Wunderground v.1.13,2013-02-06 22:16:00,
2013-02-06 14:21:00,60.3,52.3,30.07,ENE,68,2.0,2.0,75,0.00,,,0.00,Wunderground v.1.13,2013-02-06 22:21:00,
2013-02-06 14:26:00,61.0,52.3,30.08,ENE,68,1.0,1.0,73,0.00,,,0.00,Wunderground v.1.13,2013-02-06 22:26:00,
2013-02-06 14:31:00,60.4,52.1,30.08,ENE,65,0.0,0.0,74,0.00,,,0.00,Wunderground v.1.13,2013-02-06 22:31:00,
2013-02-06 14:36:00,60.1,52.1,30.08,NE,55,1.0,1.0,75,0.00,,,0.00,Wunderground v.1.13,2013-02-06 22:36:00,
2013-02-06 14:41:00,59.9,52.3,30.08,ENE,64,2.0,2.0,76,0.00,,,0.00,Wunderground v.1.13,2013-02-06 22:41:00,
2013-02-06 14:46:00,59.9,52.3,30.08,ENE,65,2.0,6.0,76,0.00,,,0.00,Wunderground v.1.13,2013-02-06 22:46:00,
2013-02-06 14:56:00,59.8,51.9,30.08,ENE,71,3.0,3.0,75,0.00,,,0.00,Wunderground v.1.13,2013-02-06 22:56:00,
2013-02-06 15:01:00,59.2,51.6,30.08,ENE,69,2.0,2.0,76,0.00,,,0.00,Wunderground v.1.13,2013-02-06 23:01:00,
2013-02-06 15:06:00,59.4,51.8,30.08,ENE,70,1.0,4.0,76,0.00,,,0.00,Wunderground v.1.13,2013-02-06 23:06:00,
2013-02-06 15:11:00,59.7,52.5,30.08,ENE,69,2.0,4.0,77,0.00,,,0.00,Wunderground v.1.13,2013-02-06 23:11:00,
2013-02-06 15:16:00,59.7,52.5,30.08,ENE,71,2.0,2.0,77,0.00,,,0.00,Wunderground v.1.13,2013-02-06 23:16:00,
2013-02-06 15:21:00,60.2,52.6,30.08,ENE,69,1.0,1.0,76,0.00,,,0.00,Wunderground v.1.13,2013-02-06 23:21:00,
2013-02-06 15:31:00,59.5,51.9,30.08,ENE,65,2.0,2.0,76,0.00,,,0.00,Wunderground v.1.13,2013-02-06 23:31:00,
2013-02-06 15:41:00,59.5,52.6,30.09,ENE,60,2.0,3.0,78,0.00,,,0.00,Wunderground v.1.13,2013-02-06 23:41:00,
2013-02-06 15:46:00,59.6,52.7,30.08,ENE,60,0.0,0.0,78,0.00,,,0.00,Wunderground v.1.13,2013-02-06 23:46:00,
2013-02-06 15:56:00,59.2,51.6,30.08,ENE,59,0.0,0.0,76,0.00,,,0.00,Wunderground v.1.13,2013-02-06 23:56:00,
2013-02-06 16:06:00,59.1,51.9,30.08,ENE,59,0.0,0.0,77,0.00,,,0.00,Wunderground v.1.13,2013-02-07 00:06:00,
2013-02-06 16:16:00,59.3,52.1,30.08,ENE,59,0.0,0.0,77,0.00,,,0.00,Wunderground v.1.13,2013-02-07 00:16:00,
2013-02-06 16:21:00,59.0,52.5,30.08,ENE,59,0.0,0.0,79,0.00,,,0.00,Wunderground v.1.13,2013-02-07 00:21:00,
2013-02-06 16:31:00,58.7,52.5,30.08,ENE,59,0.0,0.0,80,0.00,,,0.00,Wunderground v.1.13,2013-02-07 00:31:00,
2013-02-06 16:36:00,59.6,52.7,30.08,ENE,59,0.0,0.0,78,0.00,,,0.00,Wunderground v.1.13,2013-02-07 00:36:00,
2013-02-06 16:41:00,58.6,51.8,30.09,ENE,59,0.0,0.0,78,0.00,,,0.00,Wunderground v.1.13,2013-02-07 00:41:00,
2013-02-06 16:46:00,59.1,52.6,30.09,ENE,59,0.0,0.0,79,0.00,,,0.00,Wunderground v.1.13,2013-02-07 00:46:00,
2013-02-06 16:51:00,58.4,51.9,30.09,ENE,59,0.0,0.0,79,0.00,,,0.00,Wunderground v.1.13,2013-02-07 00:51:00,
2013-02-06 16:56:00,58.4,52.3,30.09,ENE,59,0.0,0.0,80,0.00,,,0.00,Wunderground v.1.13,2013-02-07 00:56:00,
2013-02-06 17:06:00,57.8,52.0,30.09,ENE,59,0.0,0.0,81,0.00,,,0.00,Wunderground v.1.13,2013-02-07 01:06:00,
2013-02-06 17:11:00,57.6,52.1,30.09,ENE,59,0.0,0.0,82,0.00,,,0.00,Wunderground v.1.13,2013-02-07 01:11:00,
2013-02-06 17:16:00,57.5,52.0,30.09,ENE,59,0.0,0.0,82,0.00,,,0.00,Wunderground v.1.13,2013-02-07 01:16:00,
2013-02-06 17:21:00,57.4,51.9,30.09,ENE,59,0.0,0.0,82,0.00,,,0.00,Wunderground v.1.13,2013-02-07 01:21:00,
2013-02-06 17:26:00,57.2,52.1,30.09,ENE,59,0.0,0.0,83,0.00,,,0.00,Wunderground v.1.13,2013-02-07 01:26:00,
2013-02-06 17:36:00,57.1,52.3,30.09,ENE,59,0.0,0.0,84,0.00,,,0.00,Wunderground v.1.13,2013-02-07 01:36:00,
2013-02-06 17:46:00,57.3,52.8,30.10,ENE,59,0.0,0.0,85,0.00,,,0.00,Wunderground v.1.13,2013-02-07 01:46:00,
2013-02-06 17:51:00,56.7,51.6,30.10,ENE,59,0.0,0.0,83,0.00,,,0.00,Wunderground v.1.13,2013-02-07 01:51:00,
2013-02-06 17:56:00,56.0,51.6,30.10,ENE,59,0.0,0.0,85,0.00,,,0.00,Wunderground v.1.13,2013-02-07 01:56:00,
2013-02-06 18:01:00,55.6,51.2,30.10,ENE,59,0.0,0.0,85,0.00,,,0.00,Wunderground v.1.13,2013-02-07 02:01:00,
2013-02-06 18:06:00,55.4,51.3,30.10,ENE,59,0.0,0.0,86,0.00,,,0.00,Wunderground v.1.13,2013-02-07 02:06:00,
2013-02-06 18:11:00,55.3,51.2,30.10,ENE,59,0.0,0.0,86,0.00,,,0.00,Wunderground v.1.13,2013-02-07 02:11:00,
2013-02-06 18:21:00,54.7,50.9,30.10,ENE,59,0.0,0.0,87,0.00,,,0.00,Wunderground v.1.13,2013-02-07 02:21:00,
2013-02-06 18:26:00,54.5,50.7,30.10,ENE,59,0.0,0.0,87,0.00,,,0.00,Wunderground v.1.13,2013-02-07 02:26:00,
2013-02-06 18:31:00,54.4,50.6,30.10,ENE,59,0.0,0.0,87,0.00,,,0.00,Wunderground v.1.13,2013-02-07 02:31:00,
2013-02-06 18:36:00,54.3,50.8,30.11,ENE,59,0.0,0.0,88,0.00,,,0.00,Wunderground v.1.13,2013-02-07 02:36:00,
2013-02-06 18:46:00,54.3,51.1,30.11,ENE,59,0.0,0.0,89,0.00,,,0.00,Wunderground v.1.13,2013-02-07 02:46:00,
2013-02-06 18:51:00,54.2,50.7,30.11,ENE,59,0.0,0.0,88,0.00,,,0.00,Wunderground v.1.13,2013-02-07 02:51:00,
2013-02-06 18:56:00,53.6,49.8,30.11,ENE,59,0.0,0.0,87,0.00,,,0.00,Wunderground v.1.13,2013-02-07 02:56:00,
2013-02-06 19:01:00,52.8,49.0,30.11,ENE,69,0.0,2.0,87,0.00,,,0.00,Wunderground v.1.13,2013-02-07 03:01:00,
2013-02-06 19:06:00,52.7,49.2,30.11,ENE,74,1.0,1.0,88,0.00,,,0.00,Wunderground v.1.13,2013-02-07 03:06:00,
2013-02-06 19:11:00,52.3,48.5,30.11,ENE,78,1.0,1.0,87,0.00,,,0.00,Wunderground v.1.13,2013-02-07 03:11:00,
2013-02-06 19:16:00,52.3,48.9,30.12,ENE,78,0.0,0.0,88,0.00,,,0.00,Wunderground v.1.13,2013-02-07 03:16:00,
2013-02-06 19:26:00,51.9,48.5,30.12,East,83,0.0,0.0,88,0.00,,,0.00,Wunderground v.1.13,2013-02-07 03:26:00,
2013-02-06 19:31:00,51.6,48.2,30.12,East,84,0.0,0.0,88,0.00,,,0.00,Wunderground v.1.13,2013-02-07 03:31:00,
2013-02-06 19:36:00,51.2,47.8,30.12,East,83,0.0,0.0,88,0.00,,,0.00,Wunderground v.1.13,2013-02-07 03:36:00,
2013-02-06 19:41:00,51.0,47.9,30.12,East,89,0.0,0.0,89,0.00,,,0.00,Wunderground v.1.13,2013-02-07 03:41:00,
2013-02-06 19:46:00,50.8,47.4,30.12,SE,126,1.0,4.0,88,0.00,,,0.00,Wunderground v.1.13,2013-02-07 03:46:00,
2013-02-06 19:51:00,50.6,47.2,30.12,SSE,157,2.0,3.0,88,0.00,,,0.00,Wunderground v.1.13,2013-02-07 03:51:00,
2013-02-06 20:01:00,50.6,47.5,30.12,SSE,161,1.0,4.0,89,0.00,,,0.00,Wunderground v.1.13,2013-02-07 04:01:00,
2013-02-06 20:06:00,50.8,47.7,30.13,SSE,168,2.0,4.0,89,0.00,,,0.00,Wunderground v.1.13,2013-02-07 04:06:00,
2013-02-06 20:11:00,50.9,47.8,30.13,South,174,3.0,4.0,89,0.00,,,0.00,Wunderground v.1.13,2013-02-07 04:11:00,
2013-02-06 20:21:00,50.6,47.2,30.13,South,175,0.0,0.0,88,0.00,,,0.00,Wunderground v.1.13,2013-02-07 04:21:00,
2013-02-06 20:26:00,50.3,47.2,30.13,South,175,0.0,0.0,89,0.00,,,0.00,Wunderground v.1.13,2013-02-07 04:26:00,
2013-02-06 20:31:00,49.9,46.8,30.13,South,177,1.0,1.0,89,0.00,,,0.00,Wunderground v.1.13,2013-02-07 04:31:00,
2013-02-06 20:36:00,49.8,46.7,30.14,South,180,2.0,2.0,89,0.00,,,0.00,Wunderground v.1.13,2013-02-07 04:36:00,
2013-02-06 20:41:00,49.6,46.5,30.14,South,184,3.0,3.0,89,0.00,,,0.00,Wunderground v.1.13,2013-02-07 04:41:00,
2013-02-06 20:51:00,50.0,47.2,30.14,South,186,2.0,2.0,90,0.00,,,0.00,Wunderground v.1.13,2013-02-07 04:51:00,
2013-02-06 20:56:00,50.2,47.1,30.14,South,186,2.0,2.0,89,0.00,,,0.00,Wunderground v.1.13,2013-02-07 04:56:00,
2013-02-06 21:01:00,49.8,46.7,30.14,South,184,1.0,3.0,89,0.00,,,0.00,Wunderground v.1.13,2013-02-07 05:01:00,
2013-02-06 21:06:00,49.4,46.3,30.14,South,184,1.0,1.0,89,0.00,,,0.00,Wunderground v.1.13,2013-02-07 05:06:00,
2013-02-06 21:11:00,49.1,46.0,30.14,South,184,0.0,0.0,89,0.00,,,0.00,Wunderground v.1.13,2013-02-07 05:11:00,
2013-02-06 21:21:00,48.6,45.8,30.15,South,184,0.0,0.0,90,0.00,,,0.00,Wunderground v.1.13,2013-02-07 05:21:00,
2013-02-06 21:26:00,48.5,45.7,30.15,South,184,1.0,3.0,90,0.00,,,0.00,Wunderground v.1.13,2013-02-07 05:26:00,
2013-02-06 21:31:00,48.7,45.9,30.15,South,184,1.0,1.0,90,0.00,,,0.00,Wunderground v.1.13,2013-02-07 05:31:00,
2013-02-06 21:36:00,48.5,45.7,30.15,South,184,1.0,1.0,90,0.00,,,0.00,Wunderground v.1.13,2013-02-07 05:36:00,
2013-02-06 21:41:00,48.1,45.3,30.15,South,184,0.0,0.0,90,0.00,,,0.00,Wunderground v.1.13,2013-02-07 05:41:00,
2013-02-06 21:51:00,47.7,45.2,30.15,South,183,2.0,4.0,91,0.00,,,0.00,Wunderground v.1.13,2013-02-07 05:51:00,
2013-02-06 21:56:00,47.9,45.4,30.15,South,184,2.0,5.0,91,0.00,,,0.00,Wunderground v.1.13,2013-02-07 05:56:00,
2013-02-06 22:01:00,47.8,45.3,30.15,South,184,3.0,3.0,91,0.00,,,0.00,Wunderground v.1.13,2013-02-07 06:01:00,
2013-02-06 22:06:00,48.2,45.7,30.15,South,190,3.0,5.0,91,0.00,,,0.00,Wunderground v.1.13,2013-02-07 06:06:00,
2013-02-06 22:11:00,48.1,45.6,30.16,South,186,4.0,9.0,91,0.00,,,0.00,Wunderground v.1.13,2013-02-07 06:11:00,
2013-02-06 22:21:00,48.4,45.9,30.16,South,185,4.0,4.0,91,0.00,,,0.00,Wunderground v.1.13,2013-02-07 06:21:00,
2013-02-06 22:26:00,48.4,45.9,30.16,South,187,4.0,4.0,91,0.00,,,0.00,Wunderground v.1.13,2013-02-07 06:26:00,
2013-02-06 22:36:00,47.7,45.2,30.16,South,185,1.0,2.0,91,0.00,,,0.00,Wunderground v.1.13,2013-02-07 06:36:00,
2013-02-06 22:41:00,47.7,45.2,30.16,South,188,2.0,4.0,91,0.00,,,0.00,Wunderground v.1.13,2013-02-07 06:41:00,
2013-02-06 22:46:00,47.9,45.4,30.16,South,187,3.0,3.0,91,0.00,,,0.00,Wunderground v.1.13,2013-02-07 06:46:00,
2013-02-06 22:51:00,47.7,45.2,30.16,South,180,3.0,3.0,91,0.00,,,0.00,Wunderground v.1.13,2013-02-07 06:51:00,
2013-02-06 23:01:00,47.2,44.7,30.16,South,180,4.0,12.0,91,0.00,,,0.00,Wunderground v.1.13,2013-02-07 07:01:00,
2013-02-06 23:11:00,47.2,44.7,30.16,South,186,6.0,6.0,91,0.00,,,0.00,Wunderground v.1.13,2013-02-07 07:11:00,
2013-02-06 23:16:00,47.1,44.6,30.16,South,182,5.0,5.0,91,0.00,,,0.00,Wunderground v.1.13,2013-02-07 07:16:00,
2013-02-06 23:21:00,47.0,44.5,30.16,South,186,6.0,9.0,91,0.00,,,0.00,Wunderground v.1.13,2013-02-07 07:21:00,
2013-02-06 23:26:00,46.8,44.3,30.16,South,180,5.0,5.0,91,0.00,,,0.00,Wunderground v.1.13,2013-02-07 07:26:00,
2013-02-06 23:36:00,46.4,43.9,30.16,South,183,2.0,2.0,91,0.00,,,0.00,Wunderground v.1.13,2013-02-07 07:36:00,
2013-02-06 23:41:00,46.0,43.5,30.16,South,180,1.0,1.0,91,0.00,,,0.00,Wunderground v.1.13,2013-02-07 07:41:00,
2013-02-06 23:46:00,45.9,43.7,30.16,South,176,1.0,1.0,92,0.00,,,0.00,Wunderground v.1.13,2013-02-07 07:46:00,
2013-02-06 23:51:00,46.0,43.8,30.15,South,177,1.0,3.0,92,0.00,,,0.00,Wunderground v.1.13,2013-02-07 07:51:00,
2013-02-06 23:56:00,45.9,43.7,30.16,South,174,1.0,1.0,92,0.00,,,0.00,Wunderground v.1.13,2013-02-07 07:56:00,